Tracking 18980 objects as of 22-Feb-2018
HD Live streaming from Space Station
objects crossing your sky now

FENGYUN 1C DEB

Track FENGYUN 1C DEB now!
10-day predictions


NORAD ID: 29805
Int'l Code: 1999-025CX
Perigee: 859.7 km
Apogee: 1,140.2 km
Inclination: 99.7 °
Period: 105.0 minutes
Semi major axis: 7370 km
RCS: 0.0153 m2 (small)
Launch date: May 10, 1999
Source: People's Republic of China (PRC)
Launch site: Taiyaun Space Center, China (TSC)

Note: This is SATELLITE DEBRIS
aabbcc
Your satellite tracking list
Your tracking list is empty




NASA's NSSDC Master Catalog

Two Line Element Set (TLE):
1 29805U 99025CX  18051.97125457  .00000013  00000-0  56371-4 0  9994
2 29805  99.7308  51.9901 0190226  42.4553  11.4151 13.71881856556041
Source of the keplerian elements: AFSPC